Flag for U.S.A. Weather past 2 weeks in Trenton, New Jersey, U.S.A.

62 °F


Feels Like: 62 °F
Forecast: 52 / 67 °F
Wind: 6 mph from West

Location: Mercer County Airport

Current Time: Oct 14, 2015 at 12:24:56 AM

Latest Report: Oct 13, 2015 at 11:53 PM

Visibility: 10 mi

Pressure: 29.65 "Hg

Humidity: 67%

Dew point: 51 °F

Location of TrentonLocation

Historic Weather in Trenton — Graph


Trenton temperature yesterday

Maximum temperature yesterday: 72 °F (at 3:53 PM)
Minimum temperature yesterday: 55 °F (at 1:53 AM)
Average temperature yesterday: 63 °F

Past Weeks' High & Low Weather Summary

High83 °F (Sep 29, 12:53 PM)97% (Oct 9, 3:53 AM)30.31 "Hg (Oct 9, 3:53 AM)
Low41 °F (Oct 11, 5:53 AM)31% (Oct 12, 3:53 PM)29.52 "Hg (Oct 13, 2:53 PM)
Average60 °F75%29.99 "Hg
* Reported Sep 28 10:53 PM — Oct 13 10:53 PM, Trenton, Weather by CustomWeather, © 2015

Note: Actual official high and low records may vary slightly from our data, if they occured in-between our weather recording intervals... More about our weather records


Trenton weather history for previous 24 hours

Time TempWeatherWind HumidityBarometerVisibility
10:53 PM
Tue, Oct 13
61 °FOvercast.5 mph78%29.64 "Hg10 mi
9:53 PM64 °FOvercast.5 mph68%29.62 "Hg10 mi
8:53 PM61 °FOvercast.5 mph90%29.59 "Hg9 mi
7:53 PM64 °FPassing clouds.3 mph78%29.57 "Hg10 mi
6:53 PM66 °FThunderstorms. Broken clouds.5 mph75%29.54 "Hg10 mi
5:53 PM70 °FBroken clouds.No wind61%29.52 "Hg10 mi
4:53 PM72 °FPartly sunny.6 mph59%29.52 "Hg10 mi
3:53 PM72 °FBroken clouds.9 mph61%29.52 "Hg10 mi
2:53 PM71 °FBroken clouds.8 mph61%29.52 "Hg10 mi
1:53 PM69 °FPartly sunny.5 mph66%29.52 "Hg10 mi
12:53 PM66 °FMostly cloudy.3 mph75%29.54 "Hg9 mi
12:01 PM67 °FBroken clouds.9 mph71%29.58 "Hg10 mi
10:53 AM67 °FOvercast.8 mph76%29.55 "Hg10 mi
9:53 AM65 °FPartly sunny.10 mph78%29.55 "Hg10 mi
8:53 AM61 °FPassing clouds.6 mph90%29.56 "Hg8 mi
7:53 AM58 °FClear.No wind93%29.57 "Hg7 mi
6:53 AM57 °FOvercast.5 mph93%29.57 "Hg7 mi
5:53 AM57 °FPassing clouds.No wind90%29.59 "Hg7 mi
4:53 AM55 °FPassing clouds.No wind90%29.58 "Hg7 mi
3:53 AM55 °FFog.No wind90%29.60 "Hg6 mi
2:53 AM58 °FPassing clouds.3 mph87%29.63 "Hg10 mi
1:53 AM55 °FClear.5 mph90%29.65 "Hg10 mi
12:53 AM56 °FClear.3 mph87%29.66 "Hg10 mi
Weather by CustomWeather, © 2015

See weather overviewHow to use our weather pages